User: anonymous   Login
Location: Darlington Observatory
(36.4817°N, 105.8156°W)
Time: 22:06:25
(UTC-06:00)
Language:

NOSS 3-3 (A) - Orbit

View from above orbital plane
View from above orbital plane
View from above satellite
View from above satellite

Ground track
Ground track

The orbit data is extracted from the following two-line orbital elements,

1 28537U 05004A   18139.86746973 0.00000000  00000-0  00000-0 0    09
2 28537  63.4297  50.1171 0296740 357.6139   2.3861 13.40753493    04
Epoch (UTC): 19 May 2018 20:49:09
Eccentricity: 0.0296740
inclination: 63.4297°
perigee height: 884 km
apogee height: 1328 km
right ascension of ascending node: 50.1171°
argument of perigee: 357.6139°
revolutions per day: 13.40753493
mean anomaly at epoch: 2.3861°
orbit number at epoch: 0

The dashed part of the orbit path shows where the satellite is in the earth's shadow,  

DLR